Location: Mahannah Oil Field
(37.4664°N, 96.6003°W)
Time: 02:06:23
(UTC+00:00)

A-11 Canister half - Pass Details

Date: 27 January 2021
Orbit: 1524 x 1684 km, 47.3° (Epoch: 25 February)

Event Time Altitude Azimuth Distance (km) Brightness Sun altitude
Rises 21:15:48 0° 259° (W) 4,669 12.3 23.2°
Reaches altitude 10° 21:18:55 10° 263° (W) 3,693 11.9 22.8°
Maximum altitude 21:28:03 57° 341° (NNW) 1,778 9.5 21.6°
Drops below altitude 10° 21:37:27 10° 60° (ENE) 3,788 10.6 20.3°
Sets 21:40:42 0° 64° (ENE) 4,796 11.0 19.9°
